Bakersfield, CA

1:18 AM PDT on May 25, 2017 (GMT -0700)
Meadows

Weather History for KBFL - May, 2013

Change the Weather History Date:

Saturday, May 4, 2013

  Actual Average Record
Temperature  
Mean Temperature 80 °F 68 °F  
Max Temperature 95 °F 80 °F 104 °F (2017)
Min Temperature 64 °F 55 °F 39 °F (1893)
Degree Days  
Heating Degree Days 0    
Month to date heating degree days 0  
Since 1 July heating degree days 1823  
Cooling Degree Days 15    
Month to date cooling degree days 49  
Year to date cooling degree days 179  
Growing Degree Days 30 (Base 50)    
Moisture  
Dew Point 29 °F    
Average Humidity 18    
Maximum Humidity 28    
Minimum Humidity 7    
Precipitation  
Precipitation 0.00 in 0.01 in 0.55 in (1932)
Month to date precipitation 0.00 0.04  
Year to date precipitation 2.31 4.17  
Since 1 July precipitation 3.10  
Snow  
Snow 0.00 in - - ()
Month to date snowfall 0.0  
Since 1 July snowfall 0.0  
Snow Depth 0.00 in    
Sea Level Pressure  
Sea Level Pressure 29.63 in    
Wind  
Wind Speed 7 mph (North)    
Max Wind Speed 22 mph    
Max Gust Speed 26 mph    
Visibility 10 miles    
Events      
T = Trace of Precipitation, MM = Missing Value Source: NWS Daily Summary

Daily Weather History Graph

Daily Weather History Graph

Search for Another Location

Airport or City:

Trip Planner

Search our weather history database for the weather conditions in past years. The results will help you decide how hot, cold, wet, or windy it might be!

Date:

Astronomy

May. 04, 2013 Rise Set
Actual Time 6:01 AM PDT 7:45 PM PDT
Civil Twilight 5:33 AM PDT 8:12 PM PDT
Nautical Twilight 5:00 AM PDT 8:46 PM PDT
Astronomical Twilight 4:25 AM PDT 9:21 PM PDT
Moon 2:51 AM PDT (5/4) 2:58 PM PDT (5/4)
Length of Visible Light 14h 39m
Length of Day
13h 44m
Waning Crescent, 26% of the Moon is Illuminated
May 4
Waning Crescent
May 9
New
May 17
First Quarter
May 24
Full
May 31
Last Quarter

Hourly Weather History & Observations

Time (PDT) Temp. Dew Point Humidity Pressure Visibility Wind Dir Wind Speed Gust Speed Precip Events Conditions
12:54 AM 71.1 °F 30.0 °F 22% 29.75 in 10.0 mi Calm Calm - N/A   Clear
1:54 AM 66.0 °F 32.0 °F 28% 29.74 in 10.0 mi Calm Calm - N/A   Clear
2:54 AM 68.0 °F 32.0 °F 26% 29.73 in 10.0 mi East 3.5 mph - N/A   Clear
3:54 AM 64.9 °F 28.9 °F 26% 29.72 in 10.0 mi Calm Calm - N/A   Clear
4:54 AM 66.9 °F 32.0 °F 27% 29.71 in 10.0 mi ESE 3.5 mph - N/A   Clear
5:54 AM 66.9 °F 32.0 °F 27% 29.70 in 10.0 mi ESE 3.5 mph - N/A   Clear
6:54 AM 69.1 °F 33.1 °F 26% 29.71 in 10.0 mi ESE 4.6 mph - N/A   Clear
7:54 AM 72.0 °F 33.1 °F 24% 29.70 in 10.0 mi SE 6.9 mph - N/A   Clear
8:54 AM 77.0 °F 32.0 °F 19% 29.69 in 10.0 mi SE 4.6 mph - N/A   Clear
9:54 AM 82.0 °F 33.1 °F 17% 29.68 in 10.0 mi Calm Calm - N/A   Clear
10:54 AM 86.0 °F 34.0 °F 16% 29.66 in 10.0 mi Variable 3.5 mph - N/A   Clear
11:54 AM 89.1 °F 34.0 °F 14% 29.64 in 10.0 mi WNW 8.1 mph - N/A   Clear
12:54 PM 90.0 °F 30.0 °F 12% 29.61 in 10.0 mi West 8.1 mph - N/A   Clear
1:54 PM 93.0 °F 28.0 °F 10% 29.58 in 10.0 mi NW 9.2 mph - N/A   Clear
2:54 PM 93.9 °F 26.1 °F 9% 29.56 in 10.0 mi WNW 9.2 mph - N/A   Clear
3:54 PM 93.9 °F 21.0 °F 7% 29.54 in 10.0 mi NW 10.4 mph 18.4 mph N/A   Clear
4:54 PM 93.9 °F 24.1 °F 8% 29.52 in 10.0 mi NNW 11.5 mph 16.1 mph N/A   Clear
5:54 PM 91.9 °F 30.0 °F 11% 29.52 in 10.0 mi West 17.3 mph - N/A   Clear
6:54 PM 86.0 °F 28.0 °F 12% 29.52 in 10.0 mi WNW 15.0 mph - N/A   Clear
7:54 PM 80.1 °F 27.0 °F 14% 29.55 in 10.0 mi NW 10.4 mph - N/A   Clear
8:54 PM 79.0 °F 27.0 °F 15% 29.59 in 10.0 mi SE 6.9 mph - N/A   Clear
9:54 PM 75.9 °F 27.0 °F 16% 29.60 in 10.0 mi NNE 6.9 mph - N/A   Clear
10:54 PM 77.0 °F 19.0 °F 11% 29.60 in 10.0 mi NNE 10.4 mph - N/A   Clear
11:54 PM 73.0 °F 30.9 °F 21% 29.60 in 8.0 mi East 3.5 mph - N/A   Clear